SL-14 DEB

Satellite information

Favourite Embed

Satellite Type and Status

DEBRISIN ORBIT

Key statistics

Satellite SL-14 DEB at a glance.

Uptime

14024

Days in orbit

Revolutions

≈ 14.0

Per day

Orbit

LEO

Low Earth Orbit

Inclination

82.6

Latest

Satellite identification and parameters

Extended collection of information and parameters for SL-14 DEB.

Object identification

Identified? True

Debris? True

Object name: SL-14 DEB

International designator: 1986-101C

Object number (NORAD): 17268

Object ID (CCSDS): 17268

Country: COMMONWEALTH OF INDEPENDENT STATES (CIS)

Current information (Y/N): Y

RCS size: SMALL

Orbital parameters

Period: 103.004 minutes

Inclination: 82.6153 deg

SMA: 7278.855 km

Apoapsis: 919.014 km

Periapsis: 882.425 km

RAAN: 213.8275 deg

Eccentricy: 0.0025134

Argument of periapsis: 286.6347 deg

Mean anomaly: 100.1788 deg

Mean motion: 13.98003268 rev/day

Mean motion (dot): 0.00000615 rev/day2

B* drag term: 0.00042204 1/REarth

Two-line elements (TLE)

Creation date: May 10, 2025, 5:27 p.m.

Reference frame: TEME

Reference center: EARTH

Epoch: May 10, 2025, 5:51 a.m. UTC

TLE line 0: 0 SL-14 DEB

TLE line 1: 1 17268U 86101C 25130.24379409 .00000615 00000-0 42204-3 0 9996

TLE line 2: 2 17268 82.6153 213.8275 0025134 286.6347 100.1788 13.98003268950515

Live tracking on map

Real-time ground track for satellite SL-14 DEB.

In-orbit conjunctions

A list of the most updated potential collisions computed for object SL-14 DEB.

Target Orbit TCA Probability of collision Miss distance Type
CZ-4C R/B LEO 2025-04-16 22:18:00 0.0002373862 906.0 (m) ROCKET BODY
FENGYUN 1C DEB SSO 2024-11-14 17:38:54 0.0001290754 730.0 (m) DEBRIS
FENGYUN 1C DEB SSO 2024-11-12 00:23:48 0.0001209547 73.0 (m) DEBRIS

Associated space launch

Ionospheric research satellite

SL-14 DEB was lifted into orbit during the mission ‘Tsiklon-3 | Ionozond-E’, on board a Tsiklon-3 space rocket.

The launch took place on Dec. 18, 1986, 8 a.m. from 32/2.

For more information about the launch, click the button.

Launch to space Tsiklon-3 | Ionozond-E
Tsiklon-3 | Ionozond-E

Agency: N/A

Status: Launch Successful

Launch date: Dec. 18, 1986, 8 a.m. UTC

Rocket: Tsiklon-3

Launch pad: 32/2

Location: Plesetsk Cosmodrome, Russian Federation

...

Latest news about this satellite

There are no fresh news available about this satellite. Check back as we update our databases every day.


Newsletter sign-up

Weekly statistics, charts and insights to help you stay on top of the space industry.